Location: Poughquag
(41.6090°N, 73.6820°W)
Time: 03:31:34
(UTC-04:00)

Transit 2A Rocket - Pass Details

Date: 29 May 2020
Orbit: 584 x 919 km, 66.7° (Epoch: 06 July)

Event Time Altitude Azimuth Distance (km) Brightness Sun altitude
Rises 22:48:43 0° 192° (SSW) 2,998 - -20.4°
Reaches altitude 10° 22:50:59 10° 186° (S) 2,137 - -20.6°
Exits shadow 22:55:13 46° 129° (SE) 980 5.1 -21.0°
Maximum altitude 22:55:39 47° 113° (ESE) 970 5.2 -21.1°
Drops below altitude 10° 23:00:49 10° 40° (NE) 2,368 7.8 -21.5°
Sets 23:03:26 0° 35° (NE) 3,357 8.7 -21.7°
